Orbital Elements at Epoch 2459200.5 (2020-Dec-17.0) TDB
Reference: JPL 22 (heliocentric ecliptic J2000)
Element | Value | Uncertainty (1-sigma) | Units |
e | .1179002205441331 | 3.4476e-08 | |
a | 2.356754645709647 | 8.9286e-09 | au |
q | 2.078892753212069 | 8.2452e-08 | au |
i | 5.705445487485928 | 3.3225e-06 | deg |
node | 255.1149706503597 | 4.4498e-05 | deg |
peri | 150.3822115534582 | 4.8068e-05 | deg |
M | 86.93886157163065 | 1.8463e-05 | deg |
tp | 2458881.359858793067 (2020-Feb-01.85985879) | 6.7309e-05 | TDB |
period | 1321.508572318206 3.62 | 7.5098e-06 2.056e-08 | d yr |
n | .27241594004077 | 1.5481e-09 | deg/d |
Q | 2.634616538207225 | 9.9813e-09 | au |
|
| | Orbit Determination Parameters
Additional Information
|